Location: Monrovia
(34.7865°N, 86.7139°W)
Time: 21:36:50
(UTC+00:00)

SL-16 R/B - Pass Details

Date: 14 July 2020
Orbit: 985 x 1006 km, 99.5° (Epoch: 08 August)

Event Time Altitude Azimuth Distance (km) Brightness Sun altitude
Exits shadow 08:57:23 20° 267° (W) 2,156 3.9 -18.6°
Drops below altitude 10° 09:01:40 10° 311° (NW) 2,780 4.8 -18.0°
Sets 09:04:58 0° 328° (NNW) 3,737 5.7 -17.5°
